AAL4296 KIAH-KDFW

Flight info

Callsign AAL4296
Flight time 0h 48m
Altitude 25000
Route BLTWY7 CRIED BEREE3
Aircraft B738/M-SDE2E3FGHIRWXY/LB1

Departure

Time 2026-05-08 03:22
Airport George Bush Intercontinental Airport (KIAH)

Arrival

Time 2026-05-08 04:11
Airport Dallas Fort Worth International Airport (KDFW)
Time Latitude Longitude Altitude Speed Heading
2026-05-08 03:00 29.98830 -95.33178 100 ft 0 kts 178°
2026-05-08 03:11 29.98847 -95.33178 99 ft 4 kts 178°
2026-05-08 03:11 29.98874 -95.33179 99 ft 4 kts 178°
2026-05-08 03:11 29.98901 -95.33179 99 ft 4 kts 186°
2026-05-08 03:12 29.98925 -95.33172 98 ft 4 kts 227°
2026-05-08 03:12 29.98931 -95.33163 98 ft 0 kts 270°
2026-05-08 03:14 29.98931 -95.33168 99 ft 3 kts 270°
2026-05-08 03:15 29.98930 -95.33231 99 ft 13 kts 267°
2026-05-08 03:15 29.98928 -95.33371 100 ft 20 kts 271°
2026-05-08 03:15 29.98995 -95.33496 98 ft 20 kts 346°
2026-05-08 03:15 29.99089 -95.33579 99 ft 19 kts 274°
2026-05-08 03:16 29.99090 -95.33730 98 ft 18 kts 271°
2026-05-08 03:16 29.99090 -95.33875 101 ft 18 kts 270°
2026-05-08 03:16 29.99090 -95.34024 99 ft 20 kts 269°
2026-05-08 03:16 29.99090 -95.34196 100 ft 22 kts 270°
2026-05-08 03:17 29.99090 -95.34368 98 ft 21 kts 269°
2026-05-08 03:17 29.99090 -95.34536 96 ft 21 kts 270°
2026-05-08 03:17 29.99090 -95.34700 99 ft 20 kts 270°
2026-05-08 03:17 29.99089 -95.34859 98 ft 19 kts 269°
2026-05-08 03:18 29.99089 -95.35013 97 ft 19 kts 269°
2026-05-08 03:18 29.99089 -95.35162 96 ft 18 kts 270°
2026-05-08 03:18 29.99089 -95.35305 94 ft 18 kts 270°
2026-05-08 03:18 29.99087 -95.35435 95 ft 14 kts 261°
2026-05-08 03:19 29.99011 -95.35485 96 ft 14 kts 182°
2026-05-08 03:19 29.98921 -95.35498 98 ft 13 kts 210°
2026-05-08 03:19 29.98873 -95.35584 99 ft 13 kts 242°
2026-05-08 03:19 29.98832 -95.35672 100 ft 12 kts 242°
2026-05-08 03:20 29.98827 -95.35683 100 ft 0 kts 242°
2026-05-08 03:21 29.98820 -95.35698 101 ft 8 kts 241°
2026-05-08 03:21 29.98761 -95.35766 104 ft 13 kts 172°
2026-05-08 03:21 29.98724 -95.35748 103 ft 0 kts 152°
2026-05-08 03:22 29.98640 -95.35696 102 ft 43 kts 152°
2026-05-08 03:22 29.98155 -95.35399 100 ft 113 kts 152°
2026-05-08 03:22 29.97289 -95.34860 127 ft 167 kts 148°
2026-05-08 03:22 29.96258 -95.34145 871 ft 167 kts 145°
2026-05-08 03:23 29.95316 -95.33464 1857 ft 150 kts 142°
2026-05-08 03:23 29.94400 -95.32782 2589 ft 170 kts 147°
2026-05-08 03:23 29.93272 -95.32002 2930 ft 206 kts 148°
2026-05-08 03:23 29.91945 -95.31131 3338 ft 228 kts 150°
2026-05-08 03:24 29.90521 -95.30242 3972 ft 236 kts 152°
2026-05-08 03:24 29.89054 -95.29345 4693 ft 242 kts 152°
2026-05-08 03:24 29.87552 -95.28353 5147 ft 255 kts 141°
2026-05-08 03:24 29.86568 -95.26632 5475 ft 269 kts 105°
2026-05-08 03:25 29.86547 -95.24464 6145 ft 275 kts 79°
2026-05-08 03:25 29.87338 -95.22441 6844 ft 283 kts 54°
2026-05-08 03:25 29.88833 -95.20929 7492 ft 291 kts 28°
2026-05-08 03:25 29.90790 -95.20345 8197 ft 294 kts 358°
2026-05-08 03:26 29.92743 -95.20858 8968 ft 292 kts 335°
2026-05-08 03:26 29.94583 -95.21848 9844 ft 292 kts 331°
2026-05-08 03:26 29.96415 -95.22918 10468 ft 302 kts 330°
2026-05-08 03:26 29.98366 -95.24069 10646 ft 327 kts 330°
2026-05-08 03:27 30.00458 -95.25285 10984 ft 342 kts 330°
2026-05-08 03:27 30.02609 -95.26511 11656 ft 346 kts 330°
2026-05-08 03:27 30.04777 -95.27732 12485 ft 346 kts 330°
2026-05-08 03:27 30.06943 -95.28944 13314 ft 346 kts 330°
2026-05-08 03:28 30.09121 -95.30158 14084 ft 348 kts 329°
2026-05-08 03:28 30.10577 -95.30969 14543 ft 351 kts 329°
2026-05-08 03:28 30.12792 -95.32203 15208 ft 356 kts 329°
2026-05-08 03:28 30.15038 -95.33454 15884 ft 360 kts 328°
2026-05-08 03:29 30.18049 -95.35132 16802 ft 365 kts 327°
2026-05-08 03:29 30.19604 -95.35998 17242 ft 369 kts 327°
2026-05-08 03:29 30.21928 -95.37294 17871 ft 373 kts 327°
2026-05-08 03:29 30.24285 -95.38607 18499 ft 377 kts 327°
2026-05-08 03:30 30.29060 -95.41262 19690 ft 385 kts 328°
2026-05-08 03:30 30.34308 -95.43002 20921 ft 403 kts 340°
2026-05-08 03:31 30.39853 -95.44274 22051 ft 409 kts 340°
2026-05-08 03:31 30.45476 -95.45612 23162 ft 415 kts 340°
2026-05-08 03:32 30.48309 -95.46298 23688 ft 418 kts 340°
2026-05-08 03:32 30.51229 -95.47009 24313 ft 415 kts 340°
2026-05-08 03:32 30.54059 -95.47660 24804 ft 416 kts 340°
2026-05-08 03:32 30.56907 -95.48295 25040 ft 416 kts 340°
2026-05-08 03:33 30.59750 -95.48929 25027 ft 416 kts 340°
2026-05-08 03:33 30.62580 -95.49561 25036 ft 412 kts 340°
2026-05-08 03:33 30.65392 -95.50192 25050 ft 412 kts 340°
2026-05-08 03:33 30.68205 -95.50827 25053 ft 413 kts 340°
2026-05-08 03:34 30.71029 -95.51466 25056 ft 413 kts 340°
2026-05-08 03:34 30.73859 -95.52107 25050 ft 414 kts 340°
2026-05-08 03:34 30.76695 -95.52748 25046 ft 414 kts 340°
2026-05-08 03:34 30.79572 -95.53399 25046 ft 414 kts 340°
2026-05-08 03:35 30.82392 -95.54036 25043 ft 414 kts 340°
2026-05-08 03:35 30.85217 -95.54675 25063 ft 413 kts 340°
2026-05-08 03:35 30.88043 -95.55315 25056 ft 412 kts 340°
2026-05-08 03:35 30.90852 -95.55951 25053 ft 411 kts 340°
2026-05-08 03:36 30.93627 -95.56580 25047 ft 410 kts 340°
2026-05-08 03:36 30.96465 -95.57223 25039 ft 409 kts 340°
2026-05-08 03:36 30.99227 -95.57851 25051 ft 409 kts 340°
2026-05-08 03:36 31.02008 -95.58482 25046 ft 408 kts 340°
2026-05-08 03:37 31.04800 -95.59117 25054 ft 408 kts 340°
2026-05-08 03:37 31.07585 -95.59751 25050 ft 408 kts 340°
2026-05-08 03:37 31.10379 -95.60388 25050 ft 408 kts 340°
2026-05-08 03:37 31.13168 -95.61023 25068 ft 409 kts 340°
2026-05-08 03:38 31.15970 -95.61663 25065 ft 411 kts 340°
2026-05-08 03:38 31.18782 -95.62305 25053 ft 412 kts 340°
2026-05-08 03:38 31.21604 -95.62949 25048 ft 413 kts 340°
2026-05-08 03:38 31.24433 -95.63594 25052 ft 414 kts 340°
2026-05-08 03:39 31.27259 -95.64239 25045 ft 414 kts 340°
2026-05-08 03:39 31.30082 -95.64883 25052 ft 414 kts 340°
2026-05-08 03:39 31.32881 -95.65523 25046 ft 415 kts 340°
2026-05-08 03:39 31.35662 -95.66305 25034 ft 404 kts 329°
2026-05-08 03:40 31.38054 -95.67838 25066 ft 389 kts 319°
2026-05-08 03:40 31.40344 -95.69529 25087 ft 390 kts 319°
2026-05-08 03:40 31.42675 -95.71240 25069 ft 401 kts 319°
2026-05-08 03:40 31.45079 -95.72994 25065 ft 413 kts 320°
2026-05-08 03:41 31.47560 -95.74788 25066 ft 424 kts 320°
2026-05-08 03:41 31.50106 -95.76617 25063 ft 433 kts 320°
2026-05-08 03:41 31.52697 -95.78471 25058 ft 440 kts 321°
2026-05-08 03:41 31.55337 -95.80356 25059 ft 447 kts 321°
2026-05-08 03:42 31.58009 -95.82265 25053 ft 452 kts 321°
2026-05-08 03:42 31.60712 -95.84197 25053 ft 457 kts 321°
2026-05-08 03:42 31.63438 -95.86148 25056 ft 460 kts 321°
2026-05-08 03:42 31.66147 -95.88089 25052 ft 464 kts 321°
2026-05-08 03:43 31.68911 -95.90072 25062 ft 465 kts 321°
2026-05-08 03:43 31.71660 -95.92044 25053 ft 463 kts 321°
2026-05-08 03:43 31.74409 -95.94018 25048 ft 462 kts 321°
2026-05-08 03:43 31.77152 -95.95991 25049 ft 461 kts 321°
2026-05-08 03:44 31.79884 -95.97959 25052 ft 460 kts 321°
2026-05-08 03:44 31.82615 -95.99927 25052 ft 460 kts 321°
2026-05-08 03:44 31.85352 -96.01901 25057 ft 460 kts 321°
2026-05-08 03:44 31.88085 -96.03874 25056 ft 460 kts 321°
2026-05-08 03:45 31.90774 -96.05817 25057 ft 460 kts 321°
2026-05-08 03:45 31.93510 -96.07796 25092 ft 460 kts 321°
2026-05-08 03:45 31.96231 -96.09763 25069 ft 456 kts 321°
2026-05-08 03:45 31.98915 -96.11702 25063 ft 450 kts 321°
2026-05-08 03:46 32.01584 -96.13634 25024 ft 449 kts 321°
2026-05-08 03:46 32.04200 -96.15518 24766 ft 432 kts 321°
2026-05-08 03:46 32.06720 -96.17328 24533 ft 416 kts 321°
2026-05-08 03:46 32.09139 -96.19070 24300 ft 399 kts 320°
2026-05-08 03:47 32.11445 -96.20733 24056 ft 380 kts 320°
2026-05-08 03:47 32.13695 -96.22370 23851 ft 382 kts 320°
2026-05-08 03:47 32.15955 -96.24022 23631 ft 383 kts 320°
2026-05-08 03:47 32.18220 -96.25673 23372 ft 382 kts 320°
2026-05-08 03:48 32.20483 -96.27319 23133 ft 382 kts 321°
2026-05-08 03:48 32.22752 -96.28968 22869 ft 382 kts 321°
2026-05-08 03:48 32.25002 -96.30603 22460 ft 377 kts 321°
2026-05-08 03:48 32.27206 -96.32206 21907 ft 374 kts 320°
2026-05-08 03:49 32.29223 -96.34058 21289 ft 364 kts 310°
2026-05-08 03:49 32.31023 -96.36138 20766 ft 360 kts 309°
2026-05-08 03:49 32.32784 -96.38236 20239 ft 358 kts 309°
2026-05-08 03:49 32.34540 -96.40321 19713 ft 359 kts 309°
2026-05-08 03:50 32.36310 -96.42401 19190 ft 360 kts 310°
2026-05-08 03:50 32.38096 -96.44477 18665 ft 360 kts 310°
2026-05-08 03:50 32.39892 -96.46554 18113 ft 360 kts 310°
2026-05-08 03:50 32.41686 -96.48620 17559 ft 359 kts 311°
2026-05-08 03:51 32.43470 -96.50674 17025 ft 357 kts 311°
2026-05-08 03:51 32.45243 -96.52714 16694 ft 349 kts 310°
2026-05-08 03:51 32.46952 -96.54680 16513 ft 338 kts 310°
2026-05-08 03:51 32.48612 -96.56590 16342 ft 327 kts 310°
2026-05-08 03:52 32.50241 -96.58464 15899 ft 325 kts 311°
2026-05-08 03:52 32.51863 -96.60323 15500 ft 323 kts 311°
2026-05-08 03:52 32.53474 -96.62169 15107 ft 321 kts 311°
2026-05-08 03:52 32.55050 -96.63975 14730 ft 319 kts 311°
2026-05-08 03:53 32.56644 -96.65803 14325 ft 317 kts 311°
2026-05-08 03:53 32.58237 -96.67609 13922 ft 316 kts 312°
2026-05-08 03:53 32.59835 -96.69405 13514 ft 314 kts 312°
2026-05-08 03:53 32.61395 -96.71157 13380 ft 304 kts 312°
2026-05-08 03:54 32.62910 -96.72860 13227 ft 295 kts 312°
2026-05-08 03:54 32.64371 -96.74506 13095 ft 285 kts 311°
2026-05-08 03:54 32.65793 -96.76109 12971 ft 276 kts 311°
2026-05-08 03:54 32.67166 -96.77664 12879 ft 271 kts 311°
2026-05-08 03:55 32.68518 -96.79199 12787 ft 269 kts 311°
2026-05-08 03:55 32.69885 -96.80755 12700 ft 275 kts 311°
2026-05-08 03:55 32.71278 -96.82340 12612 ft 278 kts 312°
2026-05-08 03:55 32.72673 -96.83924 12494 ft 277 kts 312°
2026-05-08 03:56 32.74056 -96.85495 12379 ft 271 kts 312°
2026-05-08 03:56 32.75400 -96.87019 12273 ft 263 kts 312°
2026-05-08 03:56 32.76683 -96.88475 12178 ft 255 kts 312°
2026-05-08 03:56 32.77963 -96.89932 12062 ft 253 kts 312°
2026-05-08 03:57 32.79377 -96.91132 11993 ft 251 kts 335°
2026-05-08 03:57 32.81073 -96.91559 12001 ft 250 kts 351°
2026-05-08 03:57 32.82787 -96.91591 12005 ft 244 kts 355°
2026-05-08 03:57 32.84474 -96.91551 11998 ft 241 kts 355°
2026-05-08 03:58 32.86164 -96.91510 12023 ft 245 kts 355°
2026-05-08 03:58 32.87885 -96.91478 12023 ft 248 kts 355°
2026-05-08 03:58 32.89609 -96.91451 11953 ft 246 kts 355°
2026-05-08 03:58 32.91312 -96.91430 11706 ft 245 kts 355°
2026-05-08 03:59 32.93014 -96.91415 11450 ft 243 kts 355°
2026-05-08 03:59 32.94700 -96.91402 11068 ft 244 kts 355°
2026-05-08 03:59 32.96401 -96.91391 10689 ft 245 kts 355°
2026-05-08 03:59 32.98109 -96.91380 10335 ft 245 kts 355°
2026-05-08 04:00 32.99817 -96.91369 9987 ft 245 kts 355°
2026-05-08 04:00 33.01520 -96.91358 9624 ft 244 kts 355°
2026-05-08 04:00 33.03216 -96.91347 9203 ft 246 kts 356°
2026-05-08 04:00 33.04949 -96.91337 8719 ft 249 kts 356°
2026-05-08 04:01 33.06682 -96.91326 8357 ft 248 kts 356°
2026-05-08 04:01 33.08401 -96.91314 8019 ft 246 kts 356°
2026-05-08 04:01 33.10112 -96.91302 7661 ft 245 kts 357°
2026-05-08 04:01 33.11791 -96.91291 7330 ft 243 kts 357°
2026-05-08 04:02 33.13481 -96.91280 6984 ft 243 kts 357°
2026-05-08 04:02 33.15163 -96.91270 6652 ft 241 kts 358°
2026-05-08 04:02 33.16838 -96.91259 6313 ft 240 kts 357°
2026-05-08 04:02 33.18442 -96.91622 5938 ft 234 kts 330°
2026-05-08 04:03 33.19611 -96.92891 5587 ft 227 kts 298°
2026-05-08 04:03 33.20183 -96.96530 5047 ft 219 kts 273°
2026-05-08 04:03 33.20205 -96.98270 5011 ft 201 kts 258°
2026-05-08 04:04 33.19562 -96.99644 5020 ft 190 kts 220°
2026-05-08 04:04 33.18470 -97.00543 5033 ft 192 kts 212°
2026-05-08 04:04 33.17338 -97.01379 5015 ft 191 kts 212°
2026-05-08 04:04 33.16207 -97.02186 5015 ft 192 kts 206°
2026-05-08 04:05 33.14908 -97.02439 5032 ft 191 kts 178°
2026-05-08 04:05 33.13545 -97.02431 4810 ft 201 kts 182°
2026-05-08 04:05 33.12149 -97.02470 4529 ft 199 kts 182°
2026-05-08 04:05 33.10786 -97.02490 4264 ft 194 kts 181°
2026-05-08 04:06 33.09455 -97.02501 4017 ft 189 kts 180°
2026-05-08 04:06 33.08584 -97.02506 3845 ft 187 kts 180°
2026-05-08 04:06 33.06880 -97.02515 3531 ft 180 kts 180°
2026-05-08 04:06 33.06056 -97.02520 3366 ft 176 kts 180°
2026-05-08 04:07 33.04866 -97.02526 3146 ft 165 kts 179°
2026-05-08 04:07 33.03440 -97.02534 2862 ft 146 kts 179°
2026-05-08 04:07 33.02435 -97.02539 2676 ft 143 kts 179°
2026-05-08 04:07 33.01767 -97.02542 2553 ft 141 kts 180°
2026-05-08 04:08 33.00747 -97.02548 2387 ft 153 kts 179°
2026-05-08 04:08 32.99701 -97.02553 2157 ft 151 kts 180°
2026-05-08 04:08 32.98662 -97.02559 1966 ft 146 kts 180°
2026-05-08 04:08 32.97689 -97.02565 1771 ft 135 kts 180°
2026-05-08 04:09 32.96752 -97.02570 1598 ft 136 kts 179°
2026-05-08 04:09 32.95792 -97.02575 1428 ft 140 kts 180°
2026-05-08 04:09 32.94807 -97.02580 1256 ft 142 kts 179°
2026-05-08 04:09 32.93807 -97.02585 1061 ft 145 kts 181°
2026-05-08 04:10 32.92789 -97.02588 853 ft 147 kts 180°
2026-05-08 04:10 32.91759 -97.02597 643 ft 147 kts 180°
2026-05-08 04:10 32.90777 -97.02603 571 ft 125 kts 180°
2026-05-08 04:10 32.90122 -97.02606 575 ft 64 kts 180°
2026-05-08 04:11 32.89881 -97.02607 573 ft 16 kts 180°
2026-05-08 04:11 32.89767 -97.02611 566 ft 19 kts 185°
2026-05-08 04:11 32.89627 -97.02651 574 ft 21 kts 201°
2026-05-08 04:11 32.89527 -97.02711 574 ft 6 kts 210°
2026-05-08 04:12 32.89491 -97.02736 570 ft 6 kts 210°
2026-05-08 04:12 32.89454 -97.02762 568 ft 6 kts 211°
2026-05-08 04:12 32.89418 -97.02788 576 ft 6 kts 211°
2026-05-08 04:12 32.89395 -97.02830 570 ft 7 kts 262°
2026-05-08 04:13 32.89394 -97.02902 573 ft 10 kts 270°
2026-05-08 04:13 32.89394 -97.03004 575 ft 15 kts 270°
2026-05-08 04:13 32.89394 -97.03150 575 ft 21 kts 270°
2026-05-08 04:13 32.89395 -97.03304 583 ft 17 kts 270°